Voltar ao catálogo

STARLINK-35664

AtivoComunicaçõesVLEO
NORAD 66223·PAYLOAD·🇺🇸 United States

Lançado Oct 28, 2025 de Vandenberg Space Force Base

Loading…

Próximas Passagens (próximas 24 horas)

TLE

AtualizadoSource: CelesTrak SupGP

Época: Sep 14, 2026, 14:15 UTC

1 66223C 25244T   26257.59423611 -.00028360  00000+0 -83773-3 0  2577
2 66223  53.1592  71.0385 0001259  95.9121 197.0936 15.34410855    16

Acompanhe STARLINK-35664 em tempo real com AllMySat

Download on the App Store